User: anonymous   Login
Location: Unspecified
(0.0000°N, 0.0000°E)
Time: 04:06:42
(UTC+01:00)
Language:

AO-7 - Orbit

View from above orbital plane
View from above orbital plane
View from above satellite
View from above satellite

Ground track
Ground track

The orbit data is extracted from the following two-line orbital elements,

1 07530U 74089B   18048.86814184 -.00000048  00000-0 -22688-4 0  9998
2 07530 101.6710  18.0556 0011886 205.1683 209.4478 12.53631090979646
Epoch (UTC): 17 February 2018 20:50:07
Eccentricity: 0.0011886
inclination: 101.6710°
perigee height: 1440 km
apogee height: 1458 km
right ascension of ascending node: 18.0556°
argument of perigee: 205.1683°
revolutions per day: 12.53631090
mean anomaly at epoch: 209.4478°
orbit number at epoch: 97964

The dashed part of the orbit path shows where the satellite is in the earth's shadow,  

DLR